• MPC Preparation (Info)

  • MPEC 2010-T10 : 2010 TE

    The following Minor Planet Electronic Circular may be linked-to from your own Web pages, but must not otherwise be redistributed electronically.

    A form allowing access to any MPEC is at the bottom of this page.


    Read MPEC 2010-T09 Read MPEC 2010-T11


    M.P.E.C. 2010-T10                                Issued 2010 Oct. 2, 16:38 UT
    
         The Minor Planet Electronic Circulars contain information on unusual
             minor planets and routine data on comets.  They are published
       on behalf of Commission 20 of the International Astronomical Union by the
              Minor Planet Center, Smithsonian Astrophysical Observatory,
                              Cambridge, MA 02138, U.S.A.
    
                 Prepared using the Tamkin Foundation Computer Network
    
                                  MPC@CFA.HARVARD.EDU
           URL https://www.minorplanetcenter.org/iau/mpc.html  ISSN 1523-6714
    
                                        2010 TE
    
    Observations:
         K10T00E* C2010 10 01.31595 00 28 50.36 -08 37 57.8          20.0 V ET010G96
         K10T00E  C2010 10 01.32058 00 28 48.53 -08 38 28.1          20.1 V ET010G96
         K10T00E  C2010 10 01.32983 00 28 44.91 -08 39 28.1          20.1 V ET010G96
         K10T00E  C2010 10 01.35887 00 28 33.67 -08 42 36.0          20.4 V ET010G96
         K10T00E  C2010 10 01.35928 00 28 33.52 -08 42 38.6          20.4 V ET010G96
         K10T00E  C2010 10 01.35968 00 28 33.38 -08 42 40.8          20.4 V ET010G96
         K10T00E  C2010 10 01.36005 00 28 33.24 -08 42 43.7          20.4 V ET010G96
         K10T00E  C2010 10 01.36043 00 28 32.59 -08 42 48.5          20.7 R ET010H01
         K10T00E KC2010 10 01.36413400 28 29.12 -08 43 20.1          20.0 V ET010H21
         K10T00E  C2010 10 01.36941 00 28 29.15 -08 43 45.8          20.3 R ET010H01
         K10T00E KC2010 10 01.37347700 28 25.66 -08 44 19.8          20.1 V ET010H21
         K10T00E  C2010 10 01.37652 00 28 26.46 -08 44 31.7          20.2 R ET010H01
         K10T00E KC2010 10 01.38137600 28 22.83 -08 45 10.1          20.4 V ET010H21
         K10T00E  C2010 10 01.38419 00 28 23.57 -08 45 21.1          20.0 R ET010H01
         K10T00E  C2010 10 01.39526 00 28 19.74 -08 46 29.5          20.4 V ET010G96
         K10T00E  C2010 10 01.39564 00 28 19.66 -08 46 32.0          20.4 V ET010G96
         K10T00E  C2010 10 01.39605 00 28 19.52 -08 46 34.4          19.9 V ET010G96
         K10T00E  C2010 10 01.39645 00 28 19.34 -08 46 37.3          20.6 V ET010G96
         K10T00E KC2010 10 02.24089800 23 57.91 -10 13 54.9          20.1 V ET010H21
         K10T00E tC2010 10 02.24344 00 24 00.69 -10 13 53.7          20.8 V ET010291
         K10T00E tC2010 10 02.24811 00 23 59.05 -10 14 21.1          20.8 V ET010291
         K10T00E KC2010 10 02.24897900 23 55.06 -10 14 42.5          20.0 V ET010H21
         K10T00E tC2010 10 02.25179 00 23 57.73 -10 14 42.3          20.8 V ET010291
         K10T00E KC2010 10 02.25707600 23 52.15 -10 15 30.0          19.9 V ET010H21
         K10T00E  C2010 10 02.29505 00 23 41.44 -10 19 03.5          20.2 R ET010H01
         K10T00E  C2010 10 02.30361 00 23 38.31 -10 19 53.2          20.0 R ET010H01
         K10T00E  C2010 10 02.31203 00 23 35.32 -10 20 42.8          20.2 R ET010H01
         K10T00E  C2010 10 02.32341 00 23 31.24 -10 21 48.9          20.0 R ET010H01
    
    Observer details:
    291 LPL/Spacewatch II.  Observer T. H. Bressi.  1.8-m f/2.7 reflector + CCD.
    G96 Mt. Lemmon Survey.  Observer A. R. Gibbs.  Measurers J. D. Ahern,
        E. C. Beshore, A. Boattini, G. J. Garradd, A. R. Gibbs, A. D. Grauer,
        R. E. Hill, R. A. Kowalski, S. M. Larson, R. H. McNaught.  1.5-m reflector
        + CCD.
    H01 Magdalena Ridge Observatory, Socorro.  Observer W. H. Ryan.  2.4-m f/8.9
        reflector + CCD.
    H21 Astronomical Research Observatory, Westfield.  Observer R. Holmes.
        Measurer S. Foglia.  0.61-m f/4.0 astrograph + CCD.
    
    Orbital elements:
    2010 TE                                                  Earth MOID = 0.0179 AU
    Epoch 2010 July 23.0 TT = JDT 2455400.5                 MPC
    M  55.75162              (2000.0)            P               Q
    n   1.13515696     Peri.   36.59538     -0.77935043     +0.62657748
    a   0.9101202      Node   182.21307     -0.59512593     -0.74204360
    e   0.1969286      Incl.    5.47201     -0.19605618     -0.23826865
    P   0.87           H   25.9           G   0.15           U   8
    Residuals in seconds of arc
    101001 G96  0.5+  0.1+    101001 H21  0.4-  0.0     101002 291  0.1+  0.2+
    101001 G96  0.1+  0.1-    101001 H01  0.1-  0.3+    101002 H21  0.4+  0.4-
    101001 G96  0.1-  0.0     101001 H21  0.1+  0.1+    101002 291  0.2+  0.9+
    101001 G96  0.1-  0.2-    101001 H01  0.0   0.1+    101002 H21  0.0   0.3-
    101001 G96  0.0   0.2-    101001 G96  0.8-  0.3-    101002 H01  0.6+  0.6-
    101001 G96  0.2+  0.2+    101001 G96  0.1+  0.3-    101002 H01  0.2-  0.2-
    101001 G96  0.3+  0.3-    101001 G96  0.3+  0.1-    101002 H01  0.2+  0.6-
    101001 H01  0.0   0.2+    101001 G96  0.1-  0.5-    101002 H01  0.1+  0.4-
    101001 H21  0.3+  0.0     101002 H21  0.1-  0.4-
    101001 H01  0.3-  0.6+    101002 291  0.5-  0.2-
    
    Ephemeris:
    2010 TE                  a,e,i = 0.91, 0.20, 5                   q = 0.7309
    Date    TT    R. A. (2000) Decl.     Delta      r     Elong.  Phase     V
    2010 10 01    00 30.62   -08 01.1    0.0512   1.052   169.0    10.5    20.2
    2010 10 03    00 20.26   -11 23.6    0.0565   1.055   164.4    14.8    20.6
    2010 10 05    00 11.56   -14 06.9    0.0622   1.059   159.8    19.0    21.0
    2010 10 07    00 04.27   -16 18.4    0.0681   1.062   155.6    22.8    21.3
    2010 10 09    23 58.18   -18 04.3    0.0743   1.065   151.8    26.3    21.6
    2010 10 11    23 53.11   -19 29.3    0.0807   1.068   148.4    29.4    21.9
    2010 10 13    23 48.93   -20 37.4    0.0873   1.071   145.2    32.1    22.1
    2010 10 15    23 45.51   -21 31.8    0.0941   1.073   142.3    34.6    22.4
    2010 10 17    23 42.77   -22 14.9    0.101    1.076   139.7    36.9    22.6
    2010 10 19    23 40.60   -22 48.6    0.108    1.078   137.2    38.9    22.8
    2010 10 21    23 38.95   -23 14.4    0.115    1.080   134.8    40.8    23.0
    
    Carl W. Hergenrother         (C) Copyright 2010 MPC           M.P.E.C. 2010-T10
    

    Read MPEC 2010-T09 Read MPEC 2010-T11


    MPEC number:

    Enter an MPEC number in one of the following forms:

    • 1997-B01 (the full form)
    • J97B01 (the packed version of the full form)
    • B01 (the abbreviated form)